SCP
0 0 0 0 0 0 0 0 0 0 0 0 0 0 0 0 0 0 0 0 0 0 0 0 0 0 0 0 0 0 0 0 0 0 0 0 0 0 0 0 0 0 0
0 0 0 0 0 0 0 0 0 0 0 0 0 0 0 0 0 0 0 0 0 0 0 0 0 0 0 0 0 0 0 0 0 0 0 0 0 0 0 0 0 0 0
0 0 0 0 0 0 0 0 0 0 0 0 0 0 0 0 0 0 0 0 0 0 0 0 0 0 0 0 0 0 0 0 0 0 0 0 0 0 0 0 0 0 0
0 0 0 0 0 0 0 0 0 0 0 0 0 0 0 0 0 0 0 0 0 0 0 0 0 0 0 0 0 0 0 0 0 0 0 0 0 0 0 0 0 0 0
0 0 0 0 0 0 0 0 0 0 0 0 0 0 0 0 0 0 0 0 0 0 0 0 0 0 0 0 0 0 0 0 0 0 0 0 0 0 0 0 0 0 0
0 0 0 0 0 0 0 0 0 0 0 0 0 0 0 0 0 0 0 0 0 0 0 0 0 0 0 0 0 0 0 0 0 0 0 0 0 0 0 0 0 0 0
0 0 0 0 0 0 0 0 0 0 0 0 0 0 0 0 0 0 0 0 0 0 0 0 0 0 0 0 0 0 0 0 0 0 0 0 0 0 0 0 0 0 0
0 0 0 0 0 0 0 0 0 0 0 0 0 0 0 0 0 0 0 0 0 0 0 0 0 0 0 0 0 0 0 0 0 0 0 0 0 0 0 0 0 0 0
0 0 0 0 0 0 0 0 0 0 0 0 0 0 0 0 0 0 0 0 0 0 0 0 0 0 0 0 0 0 0 0 0 0 0 0 0 0 0 0 0 0 0
0 0 0 0 0 0 0 0 0 0 0 0 0 0 0 0 0 0 0 0 0 0 0 0 0 0 0 0 0 0 0 0 0 0 0 0 0 0 0 0 0 0 0
0 0 0 0 0 0 0 0 0 0 0 0 0 0 0 0 0 0 0 0 0 0 0 0 0 0 0 0 0 0 0 0 0 0 0 0 0 0 0 0 0 0 0
0 0 0 0 0 0 0 0 0 0 0 0 0 0 0 0 0 0 0 0 0 0 0 0 0 0 0 0 0 0 0 0 0 0 0 0 0 0 0 0 0 0 0
0 0 0 0 0 0 0 0 0 0 0 0 0 0 0 0 0 0 0 0 0 0 0 0 0 0 0 0 -0 -0 0 0 0 0 0 0 0 0 0 0 0 0 0
0 0 0 0 0 0 0 0 0 0 0 0 0 0 0 0 0 0 0 0 0 0 0 0 0 0 0 0 -0 -0 0 0 0 0 0 0 0 0 0 0 0 0 0
0 0 0 0 0 0 0 0 0 0 0 0 0 0 0 0 0 0 0 0 0 0 0 0 0 0 0 0 0 -0 0 0 0 0 0 0 0 0 0 0 0 0 0
0 0 0 0 0 0 0 0 0 0 0 0 0 0 0 0 0 0 0 0 0 0 0 0 0 -0 -0 0 0 0 0 0 0 0 0 0 0 0 0 0 0 0 0
0 0 0 0 0 0 0 0 0 0 0 0 0 0 0 0 0 0 0 0 0 0 0 0 0 -0 -0 0 0 0 0 0 0 0 0 0 0 0 0 0 0 0 0
0 0 0 0 0 0 0 0 0 0 0 0 0 0 0 0 0 0 0 0 0 0 0 0 0 0 0 0 0 0 0 0 0 0 0 0 0 0 0 0 0 0 0
0 0 0 0 0 0 0 0 0 0 0 0 0 0 0 0 0 0 0 0 0 0 0 0 0 0 0 0 0 0 0 0 0 0 0 0 0 0 0 0 0 0 0
0 0 0 0 0 0 0 0 0 0 0 0 0 0 0 0 0 0 0 0 0 0 0 0 0 0 0 0 0 0 0 0 0 0 0 0 0 0 0 0 0 0 0
0 0 0 0 0 0 0 0 0 0 0 0 0 0 0 0 0 0 0 0 0 0 0 0 0 0 0 0 0 0 0 0 0 0 0 0 0 0 0 0 0 0 0
0 0 0 0 0 0 0 0 0 0 0 0 0 0 0 0 0 0 0 0 0 0 0 0 0 0 0 0 0 0 0 0 0 0 0 0 0 0 0 0 0 0 0
0 0 0 0 0 0 0 0 0 0 0 0 0 0 0 0 0 0 0 0 0 0 0 0 0 0 0 0 0 0 0 0 0 0 0 0 0 0 0 0 0 0 0
0 0 0 0 0 0 0 0 0 0 0 0 0 0 0 0 0 0 0 0 0 0 0 0 0 0 0 0 0 0 0 0 0 0 0 0 0 0 0 0 0 0 0
0 0 0 0 0 0 0 0 0 0 0 0 0 0 0 0 0 0 0 0 0 0 0 0 0 0 0 0 0 0 0 0 0 0 0 0 0 0 0 0 0 0 0
0 0 0 0 0 0 0 0 0 0 0 0 0 0 0 0 0 0 0 0 0 0 0 0 0 0 0 0 0 0 0 0 0 0 0 0 0 0 0 0 0 0 0
Wind_Speed
3 3 2 2 2 2 2 3 3 3 4 4 4 4 4 4 3 3 3 8 10 9 9 9 9 9 9 9 9 9 9 9 8 8 8 7 8 8 8 8 8 9 9
4 3 3 2 2 2 2 2 3 3 3 3 3 3 3 3 3 3 3 5 9 10 10 9 10 10 10 10 10 10 9 9 8 8 8 8 8 8 8 9 9 9 9
4 4 3 2 2 2 3 3 3 3 3 3 3 3 3 3 3 3 3 3 4 8 11 10 10 10 10 10 10 10 10 9 9 8 8 8 8 8 9 9 9 9 9
4 4 3 2 2 2 2 3 2 3 3 2 2 2 2 2 3 3 3 3 3 4 6 10 11 11 10 10 10 10 9 10 9 9 8 8 8 8 8 8 8 8 9
4 3 3 2 3 2 2 2 2 2 2 2 2 2 2 2 2 2 3 3 3 3 3 7 10 10 10 10 10 9 9 9 9 9 8 8 8 8 8 8 8 8 9
4 4 3 3 3 3 2 2 3 3 2 2 2 2 2 2 2 2 2 2 2 3 3 4 4 6 9 10 10 10 9 9 9 9 9 8 8 8 8 8 8 9 9
4 4 3 2 2 3 3 3 3 3 2 1 2 2 2 2 2 2 2 2 2 3 3 3 3 3 3 8 9 10 10 9 9 9 9 9 9 9 8 8 8 9 9
3 3 4 3 2 2 3 3 3 2 1 1 2 2 1 2 2 2 1 1 2 2 3 3 3 3 3 2 6 9 9 9 9 9 9 9 9 9 10 9 9 9 9
2 3 3 3 3 2 2 2 2 3 2 1 1 2 2 2 2 2 1 1 2 1 2 2 2 2 2 2 3 6 8 9 9 9 9 10 10 10 10 10 10 10 10
2 3 3 3 3 3 2 2 2 2 3 1 1 1 2 2 1 2 2 1 2 1 2 2 2 2 2 2 3 7 8 9 9 10 10 10 11 11 11 11 11 10 10
2 2 2 3 3 3 3 2 2 2 2 2 2 1 1 1 2 2 2 3 2 2 1 2 2 2 2 2 2 5 8 9 10 10 11 11 11 11 12 12 11 11 11
2 2 2 2 3 3 3 2 2 3 2 2 1 1 2 2 2 2 2 2 3 3 2 2 2 2 2 1 3 7 8 10 11 11 12 12 12 12 12 12 12 12 12
2 2 2 2 2 3 3 3 3 2 2 2 2 1 1 2 2 2 2 1 2 2 2 2 2 2 1 1 3 7 7 10 11 12 12 12 12 12 12 12 12 13 13
2 2 2 2 2 2 2 2 2 2 2 2 2 2 1 1 1 2 2 2 1 2 2 3 2 2 1 2 4 7 5 10 11 12 12 12 12 12 12 12 13 13 13
2 3 2 2 2 2 2 3 2 2 2 1 1 1 1 1 1 2 2 3 3 2 3 3 2 2 2 2 5 3 4 9 12 12 12 12 12 12 13 13 13 13 13
3 3 3 3 2 2 2 3 2 2 2 1 1 1 1 1 1 1 2 2 3 3 3 2 3 3 3 4 7 4 4 11 12 13 13 13 13 13 13 13 13 13 13
3 3 3 3 3 3 3 3 2 2 2 2 2 2 2 2 2 2 1 2 2 2 4 4 2 3 3 4 5 4 4 4 5 12 13 14 14 14 14 14 14 14 14
3 3 3 3 3 3 3 3 3 3 3 3 3 2 3 2 2 2 2 2 3 3 4 5 3 3 4 4 4 5 5 4 4 11 14 14 14 14 14 14 14 14 14
3 3 3 3 3 3 3 3 3 3 3 4 4 4 4 3 3 3 3 3 3 3 3 4 5 3 3 3 4 4 5 5 5 8 12 13 13 14 14 14 14 14 14
3 3 3 3 3 3 3 3 3 3 3 3 4 4 4 5 5 4 3 4 3 3 3 4 5 4 4 4 3 4 5 4 5 5 8 9 12 14 14 15 14 14 13
3 3 3 3 3 3 3 4 4 4 4 3 3 4 5 6 7 5 4 4 3 3 3 4 5 4 4 3 4 3 5 5 5 4 4 5 5 5 6 11 12 13 14
3 3 3 3 3 3 5 6 4 4 4 4 4 4 5 6 7 9 9 8 7 5 5 4 5 6 7 5 4 4 5 5 6 2 3 5 3 5 5 5 11 15 15
3 3 3 3 4 4 6 7 7 4 4 4 5 4 4 5 6 4 7 10 10 12 11 6 7 8 7 6 5 6 6 6 7 4 3 6 4 6 5 7 15 15 15
3 3 4 4 4 5 7 7 7 4 4 5 5 5 5 5 5 6 5 5 6 7 8 6 7 8 8 7 7 7 7 7 7 5 4 6 4 5 5 5 12 14 14
3 4 3 4 4 5 7 8 6 3 4 5 5 5 5 6 10 10 6 6 6 6 9 12 13 13 15 15 11 5 5 6 7 5 3 4 4 4 4 5 7 11 12
4 3 3 4 5 5 7 8 7 3 4 4 4 5 8 8 10 10 6 5 7 7 5 6 8 9 8 10 13 7 5 6 6 5 3 3 3 3 5 3 3 4 5
Wind_Direction
122 113 101 90 79 76 88 87 83 81 76 71 70 74 65 55 47 37 13 28 35 39 41 42 47 52 53 50 48 47 47 47 44 39 37 34 29 25 20 16 12 10 10
130 122 109 98 86 83 89 99 99 93 82 78 71 68 66 57 50 43 32 25 32 36 39 44 44 44 45 46 46 44 42 41 37 35 34 30 26 23 20 20 17 12 7
136 131 122 112 104 97 91 90 91 85 81 72 66 63 62 55 53 46 41 34 27 33 38 43 41 39 38 38 38 38 36 35 32 29 29 28 24 21 18 16 14 10 5
133 131 126 122 118 104 98 96 95 86 74 71 63 49 52 52 53 52 49 44 38 34 31 41 41 37 34 31 30 31 31 30 27 23 19 17 14 11 8 6 5 3 360
133 126 127 126 120 106 95 100 82 99 92 75 71 55 46 46 41 51 53 50 46 44 34 34 34 31 29 26 24 25 24 21 16 13 10 7 6 5 2 1 0 357 352
134 122 116 122 121 112 97 97 92 80 94 95 77 53 35 31 41 49 46 47 45 47 42 36 27 19 23 22 20 17 14 11 8 4 4 2 358 356 355 353 353 352 350
133 128 124 116 119 120 122 120 109 87 71 73 77 38 16 28 48 45 41 50 43 37 38 35 28 20 5 10 11 10 6 4 1 359 358 357 352 346 343 341 341 341 341
127 130 133 135 120 117 114 112 115 111 78 68 107 101 16 349 358 31 31 54 38 24 24 20 14 11 360 354 353 2 2 360 355 351 349 347 345 343 339 337 335 336 337
121 120 130 132 128 120 129 127 124 132 129 60 76 130 138 223 302 327 357 28 19 17 0 345 352 353 349 344 333 346 353 350 348 346 342 338 335 334 332 331 331 331 333
124 123 129 135 133 127 129 134 120 128 132 134 80 61 112 146 153 314 321 344 351 346 330 327 330 323 328 326 330 339 344 342 341 339 335 332 330 328 326 326 326 326 327
104 117 128 129 131 131 137 131 122 123 134 149 149 129 97 80 110 156 275 310 327 300 289 292 290 293 307 315 314 329 340 338 334 332 329 326 325 324 323 322 322 323 323
107 112 120 128 134 135 141 143 138 132 136 141 143 149 154 155 169 169 218 260 287 289 291 282 269 275 287 302 316 334 336 335 331 327 324 322 322 322 319 318 318 319 319
148 160 148 145 144 146 148 142 138 141 148 155 167 175 179 185 174 171 178 225 270 292 306 299 262 263 274 293 306 324 327 330 326 323 320 319 321 320 317 316 314 313 313
167 151 152 147 147 140 140 135 129 144 148 165 178 178 186 200 185 184 178 173 268 293 284 277 290 261 274 288 294 315 314 318 318 317 316 315 315 313 311 312 310 309 309
152 145 145 146 145 142 147 142 140 159 154 173 185 182 197 214 198 206 190 175 181 250 270 261 274 285 283 279 294 299 290 303 310 310 309 309 307 305 303 303 303 303 303
150 146 151 156 153 152 155 150 152 159 156 177 177 182 213 229 219 211 203 197 189 201 249 254 251 268 285 291 297 299 288 302 305 305 303 302 301 300 299 297 297 297 298
158 160 165 165 165 165 163 162 171 166 174 193 197 199 225 224 223 220 209 203 205 198 245 269 253 266 272 280 294 291 282 280 287 297 298 298 297 296 295 294 294 294 293
166 167 165 167 173 175 172 176 188 186 190 204 215 211 231 227 229 223 214 217 218 212 223 268 277 269 266 272 280 287 288 283 274 290 294 294 294 293 294 293 292 292 291
165 165 167 177 185 187 186 192 194 198 204 212 214 215 227 221 235 230 223 224 226 232 223 250 276 271 273 272 280 281 276 278 279 286 291 292 291 292 294 292 292 293 292
170 176 181 187 191 193 196 198 197 204 214 219 219 220 223 221 228 230 230 229 227 232 234 251 270 276 273 267 261 276 289 274 277 282 284 286 287 290 291 293 293 293 291
183 183 181 189 195 197 204 202 202 206 214 226 232 232 232 237 240 238 239 228 219 229 243 255 268 278 275 274 268 266 280 287 278 262 274 277 281 278 283 287 289 289 287
186 181 190 195 203 216 229 225 215 208 216 224 237 244 246 248 255 261 264 259 245 237 242 250 264 265 271 266 269 270 280 291 291 253 255 275 261 268 267 260 278 285 284
191 197 208 206 217 233 241 241 236 218 218 226 233 240 251 252 264 250 262 267 262 260 257 253 255 259 266 263 267 273 268 267 268 266 267 279 263 266 266 273 282 282 282
198 207 216 217 223 238 244 246 244 223 222 231 232 233 239 249 249 252 245 250 252 257 262 256 245 253 256 256 250 262 269 272 269 255 228 268 269 265 274 269 277 277 280
206 213 216 215 222 242 245 245 240 210 226 238 238 235 240 243 258 268 262 256 265 266 273 271 269 271 274 277 275 270 265 272 278 268 215 242 266 274 272 266 269 277 281
209 211 223 220 222 235 244 245 238 210 226 240 244 242 253 259 267 271 260 254 266 271 266 274 276 280 280 278 280 268 257 264 274 275 227 223 256 274 284 265 253 266 276